Regional Weather Roundup
Issued by NWS

Home | Current Version | Previous Version | Graphics & Text | Print | Product List | Glossary On
Versions: 1 2 3 4 5 6 7 8 9 10 11 12 13 14 15 16 17 18 19 20 21 22 23 24 25 26 27 28 29 30 31 32 33 34 35 36 37 38 39 40 41 42 43 44 45 46 47 48 49 50
000
ASUS43 KMKX 142220
RWRWI

WISCONSIN REGIONAL WEATHER ROUNDUP
NATIONAL WEATHER SERVICE MILWAUKEE/SULLIVAN WI
400 PM CST THU DEC 14 2017

NOTE: "FAIR" INDICATES FEW OR NO CLOUDS BELOW 12,000 FEET WITH NO
SIGNIFICANT WEATHER AND/OR OBSTRUCTIONS TO VISIBILITY.

WIZ001-002-006>008-014>016-023>028-142300-
NORTHWEST WISCONSIN

CITY           SKY/WX    TMP DP  RH WIND       PRES   REMARKS
SUPERIOR ARPT  FLURRIES  20  13  74 W7        29.99R WCI  11
ASHLAND        CLOUDY    19  12  74 W6        29.97R WCI  11
HAYWARD        LGT SNOW  18  12  77 SW6       29.95S WCI  10
SIREN          CLOUDY    19  14  78 W7        29.99R WCI  10
CUMBERLAND     FLURRIES  19  14  79 W9        29.96S WCI   9
RICE LAKE      LGT SNOW  20  16  84 CALM      29.99S
CHETEK         CLOUDY    20  15  81 W5        29.98S WCI  13
LADYSMITH      FLURRIES  20  15  82 SW6       29.97S WCI  12
EAU CLAIRE     FLURRIES  22  15  75 W10       29.99S WCI  11
MENOMONIE      CLOUDY    22  16  76 W8        30.00S WCI  13
NEW RICHMOND   LGT SNOW  21  16  81 W8        29.99S WCI  11
OSCEOLA        FLURRIES  21  17  84 W8        30.03R WCI  12
$$

WIZ003>005-009-010-017-018-142300-
NORTH CENTRAL WISCONSIN

CITY           SKY/WX    TMP DP  RH WIND       PRES   REMARKS
MANITOWISH WTR LGT SNOW  15  14  92 SW3       29.89F
ARBOR VITAE    LGT SNOW  17  14  88 CALM      29.90S
WOODRUFF       LGT SNOW  17  14  88 CALM      29.90S
RHINELANDER    LGT SNOW  17  14  88 CALM      29.90F FOG
EAGLE RIVER    LGT SNOW  15  10  81 W3        29.89F
LAND O LAKES   FLURRIES  15  10  78 SW3       29.91F
PHILLIPS       LGT SNOW  18  16  91 SW6       29.91S WCI  10
TOMAHAWK       LGT SNOW  18  14  83 W3        29.93S
MEDFORD        LGT SNOW  18  15  85 SW6       29.93S WCI  10
MERRILL        FLURRIES  20  15  82 W7        29.95S WCI  11
$$

WIZ029-030-035-036-043>047-142300-
CENTRAL WISCONSIN

CITY           SKY/WX    TMP DP  RH WIND       PRES   REMARKS
WAUSAU         CLOUDY    19  14  81 W10       29.94F WCI   7
MOSINEE        CLOUDY    19  16  86 SW7       29.97S WCI  10
MARSHFIELD     CLOUDY    20  14  77 SW7       29.95F WCI  11
STEVENS POINT  CLOUDY    19  14  79 W6        29.98F WCI  11
WAUPACA        MOCLDY    24  15  66 SW7       30.01S WCI  16
WAUTOMA        CLOUDY    23  13  65 W6        30.01S WCI  16
WISC RAPIDS    CLOUDY    23  12  62 W5        30.00F WCI  17
CAMP DOUGLAS   CLOUDY    25  12  58 CALM      30.00S
$$

WIZ011>013-019>022-031-037>040-048>050-142300-
NORTHEAST WISCONSIN

CITY           SKY/WX    TMP DP  RH WIND       PRES   REMARKS
ANTIGO         FLURRIES  18  14  86 W7        29.93S WCI   8
SHAWANO        FLURRIES  24  16  70 W5        29.99R WCI  18
OCONTO         CLOUDY    21  14  73 SW6       29.99S WCI  14
STURGEON BAY   FLURRIES  20  12  71 SW7       29.99S WCI  11
GREEN BAY      CLOUDY    20  11  68 SW7       30.01R WCI  11
MANITOWOC      CLEAR     19  10  68 W5        30.02S WCI  12
APPLETON       NOT AVBL
CLINTONVILLE   FLURRIES  23  14  68 W6        30.00R WCI  16
OSHKOSH        MOCLDY    19  11  70 S6        30.00F WCI  11
$$

WIZ032>034-041-042-053>061-142300-
SOUTHWEST WISCONSIN

CITY           SKY/WX    TMP DP  RH WIND       PRES   REMARKS
LA CROSSE      CLOUDY    26  14  60 SW6       30.03S WCI  19
SPARTA         CLOUDY    25  14  64 W3        30.02F
VIROQUA        CLOUDY    23  15  71 SW6       30.00S WCI  16
BOSCOBEL       PTCLDY    28  10  46 SW5       30.05R WCI  23
PRAIRIE DU CHI CLOUDY    28  13  54 SW7       30.05R WCI  20
PLATTEVILLE    CLEAR     26  12  55 SW8       30.03R WCI  18
$$

WIZ056-057-062-063-064-067-068-142300-
SOUTH CENTRAL WISCONSIN

CITY           SKY/WX    TMP DP  RH WIND       PRES   REMARKS
REEDSBURG      CLOUDY    24  11  59 SW7       30.02S WCI  16
BARABOO/DELLS  CLOUDY    23  11  60 W6        30.01S WCI  16
LONE ROCK      MOCLDY    25  13  60 W5        30.04S WCI  19
MINERAL POINT  CLEAR     27  12  54 W7        30.01R WCI  19
MADISON        PTCLDY    23  10  57 NW6       30.02S WCI  16
MIDDLETON      CLEAR     26  12  56 W5        30.02S WCI  20
WATERTOWN      CLEAR     22  12  63 CALM      30.03R
MONROE         CLEAR     27   9  46 W3        30.01S
JANESVILLE     PTCLDY    27   9  46 W5        30.03S WCI  21
$$

WIZ051-052-058>065-066-070>072-142300-
SOUTHEAST WISCONSIN

CITY           SKY/WX    TMP DP  RH WIND       PRES   REMARKS
MILWAUKEE      PTCLDY    24  10  55 NW7       30.04S WCI  16
WAUKESHA       CLEAR     19   9  63 NW9       30.04R WCI   9
MILWAUKEE/TIMM CLEAR     21   7  53 NW6       30.04R WCI  14
RACINE         CLEAR     23   8  52 W6        30.06R WCI  16
BURLINGTON     CLEAR     22  12  65 NW5       30.04R WCI  16
KENOSHA        CLEAR     24   9  52 NW5       30.04R WCI  18
FOND DU LAC    CLEAR     21  10  62 SW5       30.01F WCI  15
SHEBOYGAN      CLEAR     17  10  74 W6        30.02R WCI   9
WEST BEND      CLEAR     21  12  68 W7        30.01S WCI  13
JUNEAU         CLEAR     20  10  67 CALM      30.03R
$$

LSZ147-162-142300-
LAKE SUPERIOR

STATION/POSITION TIME  TEMP    WIND        PRES    WAVE
                       AIR SEA DIR/SP/G            HT/PER
                 (UTC) (F)     (DEG/KT/KT) (MB)    (FT/S)
SAXON HARBOR     2040   20                 1014.6S
$$

LMZ867-665-643>646-142300-
LAKE MICHIGAN

STATION/POSITION TIME  TEMP    WIND        PRES    WAVE
                       AIR SEA DIR/SP/G            HT/PER
                 (UTC) (F)     (DEG/KT/KT) (MB)    (FT/S)
NORTHPORT PIER   2040   22     290/  3/ 12 1014.9F
KEWAUNEE LAKESHO 1954   21     270/  7/ 10 1015.6
SHEBOYGAN LAKESH 2100   22     290/  8/ 10 1017.6F
PORT WASHINGTON  2040   22     300/  6/ 10 1017.9F
MILWAUKEE LAKESH 2000   23     310/  5/  6   N/A
KENOSHA   LAKESH 2000   24     310/  9/ 11 1017.3
$$

TC  - TEMPERATURE IN CELSIUS
VSB - VISIBILITY IN STATUTE MILES
WCI - WIND CHILL INDEX
HX  - HEAT INDEX





USA.gov is the U.S. government's official web portal to all federal, state and local government web resources and services.